�N����,�~����,���ϋC��,�ō��C��,�Œ�C��,���x,�C��,�ő�����,���ϕ���,�ő�u�ԕ���,�ő厞����,����,�I�_���x,����,�Ǝ���,������,���ʏ���,�n�����x
"22/01/01",6.4,2.1,4.7,0.6,90.6,1019.9,N,3.1,37.2,ESE,6.67,0.8,2.9,9.7,0.97,1.2,5.8
"22/01/02",0.2,2.4,9.8,-2.4,87.8,1018.2,WNW,1.4,5.4,WSW,11.93,0.4,8.7,9.7,4.35,1.6,5.8
"22/01/03",0.0,4.7,11.9,0.1,83.0,1015.3,WNW,1.9,6.5,WSW,11.26,1.7,8.0,9.7,3.88,2.0,6.6
"22/01/04",0.4,3.0,8.2,-1.7,90.7,1014.7,NW,2.5,10.3,NNW,8.62,1.6,5.0,9.7,2.27,1.4,6.2
"22/01/05",0.2,2.7,5.6,-0.4,87.3,1019.7,NW,2.0,19.5,NNE,8.00,0.7,4.3,9.7,1.82,1.3,6.2
"22/01/06",0.0,3.2,7.3,0.7,86.6,1017.3,WNW,1.6,4.9,NNW,6.02,1.1,2.0,9.7,0.54,1.1,6.5
"22/01/07",1.4,4.0,7.0,1.2,82.9,1020.2,NW,2.1,9.1,N,7.25,1.3,3.4,9.8,1.31,1.5,6.5
"22/01/08",0.0,4.1,10.3,-1.2,80.0,1018.1,NW,1.7,4.8,SSW,11.88,0.7,8.4,9.8,4.27,2.1,7.0
"22/01/09",0.2,4.9,13.2,-2.4,81.2,1014.3,NW,1.8,6.5,NNW,10.93,1.6,7.3,9.8,3.70,2.0,6.4
"22/01/10",0.0,7.1,14.2,0.8,73.1,1013.3,NW,2.7,8.6,NW,12.61,2.1,9.1,9.8,4.68,3.1,7.6
"22/01/11",10.4,4.2,7.3,0.5,93.1,1003.1,WNW,2.1,9.3,NNW,0.61,3.2,0.0,9.8,-2.84,0.3,6.7
"22/01/12",1.8,2.3,4.0,1.3,91.6,1006.9,WNW,2.9,8.6,NW,5.16,1.1,0.9,9.8,0.06,1.0,6.1
"22/01/13",0.0,3.2,7.2,0.8,69.3,1004.2,WNW,4.1,19.2,NNE,10.73,-2.3,6.9,9.9,3.40,3.1,5.8
"22/01/14",4.4,1.0,3.5,-0.8,94.7,1011.3,WNW,3.0,9.6,WSW,10.94,0.3,7.1,9.9,3.91,1.5,5.2
"22/01/15",0.0,3.4,8.1,-0.8,86.3,1016.6,NW,2.2,6.7,NW,9.79,1.2,5.8,9.9,3.08,1.7,5.6
"22/01/16",0.2,2.8,10.7,-3.0,88.6,1015.0,NW,1.6,4.9,NW,9.62,0.9,5.5,9.9,3.00,1.4,5.4
"22/01/17",0.0,4.5,9.1,-0.7,74.1,1012.7,NW,3.3,14.2,NW,7.39,-0.2,3.1,9.9,1.35,2.3,5.5
"22/01/18",0.0,2.0,4.3,-0.6,84.7,1014.1,WNW,3.5,11.2,NNW,8.78,-0.4,4.5,10.0,2.40,1.8,5.3
"22/01/19",0.0,1.7,6.1,-2.1,86.4,1014.2,NW,2.1,8.1,NW,9.75,-0.4,5.5,10.0,3.08,1.5,5.1
"22/01/20",1.2,1.3,5.2,-3.0,92.0,1012.0,NW,3.5,13.1,NW,11.35,0.1,7.1,10.0,4.24,1.7,4.8
"22/01/21",6.0,1.7,4.8,-0.4,90.2,1020.2,N,1.6,19.4,S,7.49,0.3,3.0,10.0,1.65,1.1,5.0
"22/01/22",0.0,2.7,6.2,-0.5,85.1,1021.6,NW,2.3,7.8,NW,6.21,0.4,1.6,10.0,0.75,1.3,5.2
"22/01/23",12.2,2.4,4.7,-0.3,93.9,1015.8,NW,2.0,6.2,NW,1.71,1.5,0.0,10.1,-2.15,0.4,4.8
"22/01/24",0.2,4.7,8.5,1.5,87.5,1012.1,NW,2.2,10.6,NNW,7.36,2.6,2.7,10.1,1.62,1.4,5.7
"22/01/25",0.2,3.6,9.2,-2.2,82.7,1014.5,NW,1.5,5.5,NNW,9.65,0.7,5.0,10.1,3.07,1.6,5.5
"22/01/26",0.0,5.0,11.1,-1.5,82.1,1014.3,WNW,2.2,10.5,NW,9.04,2.0,4.3,10.2,2.69,1.8,5.8
"22/01/27",0.0,4.9,8.7,-0.4,82.9,1014.8,NW,2.4,9.8,NNW,8.31,2.2,3.5,10.2,2.23,1.8,6.6
"22/01/28",0.0,3.8,10.0,-1.3,85.6,1012.2,WNW,1.9,7.1,NW,8.63,1.5,3.8,10.2,2.47,1.5,5.9
"22/01/29",0.0,3.8,9.5,-0.7,83.2,1009.6,NW,1.8,7.0,WSW,9.10,0.9,4.2,10.2,2.76,1.6,6.0
"22/01/30",0.0,4.1,8.3,0.3,79.4,1009.3,NW,2.8,8.1,NW,8.48,0.7,3.5,10.3,2.30,2.0,6.0
"22/01/31",0.0,3.3,8.7,-0.1,79.9,1013.1,NW,2.9,8.7,NNW,10.25,0.0,5.2,10.3,3.51,2.2,5.7
"22/02/01",0.0,3.8,9.7,-2.0,78.8,1014.3,NW,2.6,10.4,NNW,9.59,0.2,4.5,10.3,3.06,2.1,5.5
"22/02/02",0.4,4.0,9.0,-0.4,78.4,1016.5,NW,2.2,9.4,NW,11.05,0.4,5.9,10.3,4.06,2.2,5.9
"22/02/03",0.0,3.8,9.6,-1.5,76.8,1014.7,NW,2.3,10.8,N,10.85,-0.3,5.6,10.4,3.91,2.2,5.7
"22/02/04",0.0,5.0,10.6,1.8,69.4,1011.2,NW,3.3,8.7,NNW,13.82,-0.6,8.4,10.4,5.83,3.4,6.2
"22/02/05",0.0,2.0,5.1,-1.8,64.8,1009.2,NW,3.6,14.8,NW,11.46,-4.0,6.0,10.4,4.16,3.1,5.2
"22/02/06",0.0,1.9,5.6,-0.7,71.5,1013.3,WNW,3.8,12.8,NW,11.82,-2.8,6.3,10.5,4.53,2.9,4.6
"22/02/07",0.0,3.3,8.8,-0.1,75.0,1018.3,NW,2.4,7.7,NNW,13.23,-0.9,7.6,10.5,5.58,2.6,5.2
"22/02/08",0.8,5.0,10.9,1.9,79.9,1017.7,NW,2.0,5.8,SW,11.71,1.6,6.0,10.5,4.66,2.2,6.3
"22/02/09",0.2,4.6,10.5,-0.3,74.0,1017.9,NNW,2.5,8.6,NNW,16.69,-0.2,10.5,10.5,8.00,3.2,6.4
"22/02/10",0.0,5.6,10.2,2.7,74.1,1013.5,NW,3.0,10.3,NW,7.83,1.2,2.3,10.6,1.93,2.4,6.5
"22/02/11",0.0,5.0,11.6,-0.3,77.8,1016.8,NW,2.5,9.8,NNW,15.01,1.1,8.9,10.6,6.95,2.9,6.5
"22/02/12",0.0,5.2,13.4,-1.1,73.7,1018.6,NW,1.8,7.5,NNW,16.24,0.3,9.9,10.6,7.75,3.0,6.5
"22/02/13",7.8,3.8,6.8,0.4,87.3,1015.3,NW,1.9,7.8,NNW,2.51,1.9,0.0,10.7,-1.58,0.7,6.2
"22/02/14",0.0,6.1,10.1,1.3,74.0,1012.8,NNW,3.2,9.3,NNW,13.16,1.6,6.9,10.7,5.68,3.2,6.8
"22/02/15",0.0,5.1,11.4,-1.8,79.8,1009.6,NW,2.2,11.8,WNW,8.16,1.7,2.3,10.7,2.30,1.8,6.3
"22/02/16",0.0,2.8,7.2,-1.1,64.8,1007.9,WNW,2.9,12.7,NW,13.44,-3.5,6.9,10.8,5.72,3.1,6.1
"22/02/17",0.0,0.7,4.5,-2.2,73.5,1010.9,NW,3.8,13.9,NNW,15.68,-3.7,8.9,10.8,7.46,3.1,4.9
"22/02/18",0.4,2.2,7.5,-2.4,85.1,1021.6,NW,2.4,9.7,NNW,13.19,-0.2,6.6,10.8,5.90,2.1,5.4
"22/02/19",8.8,3.5,9.1,-2.2,86.8,1015.1,NW,2.0,7.1,NW,5.61,1.4,0.0,10.9,0.61,1.1,5.3
"22/02/20",0.2,4.0,8.3,0.2,84.0,1007.4,NW,3.9,14.0,NNW,12.25,1.4,5.6,10.9,5.28,2.5,6.1
"22/02/21",1.6,1.8,5.3,-0.4,85.2,1016.1,WNW,3.7,11.9,NNW,16.13,-0.5,8.9,11.0,8.04,2.7,5.7
"22/02/22",0.0,2.5,7.9,-1.2,69.4,1017.6,NW,3.9,15.4,NW,14.07,-2.6,7.0,11.0,6.35,3.4,5.0
"22/02/23",0.0,1.8,6.6,-2.5,76.2,1019.6,NW,2.9,10.3,NNW,11.64,-2.0,4.8,11.0,4.75,2.4,4.7
"22/02/24",0.0,2.2,6.3,-0.6,76.0,1019.0,NNW,3.4,15.7,NW,16.70,-1.8,9.1,11.1,8.37,3.2,4.9
"22/02/25",0.0,2.9,11.0,-4.1,74.3,1018.5,NW,2.0,8.2,NNW,16.93,-1.8,9.2,11.1,8.52,2.9,5.0
"22/02/26",0.0,4.7,13.5,-3.2,69.1,1015.8,NW,2.0,8.2,WNW,19.48,-1.3,11.1,11.1,10.27,3.6,5.8
"22/02/27",0.0,5.6,13.0,-0.3,73.5,1012.4,NW,2.6,12.7,NW,15.08,0.7,7.4,11.2,7.25,3.2,6.4
"22/02/28",0.0,6.5,15.3,-2.2,66.9,1016.9,WNW,1.9,7.0,SSW,20.20,-0.4,11.2,11.2,10.79,3.9,6.7
"22/03/01",12.2,4.8,8.1,0.2,91.3,1010.1,NW,1.3,5.5,NW,1.43,3.5,0.0,11.3,-2.21,0.4,6.4
"22/03/02",0.4,7.9,12.2,4.8,91.0,1009.0,WNW,1.4,5.8,NW,7.12,6.5,0.4,11.4,2.03,1.2,7.5
"22/03/03",0.2,6.8,13.6,2.1,77.4,1011.0,NW,2.7,10.3,NW,12.69,2.7,4.9,11.4,5.74,2.9,7.6
"22/03/04",0.0,6.3,11.9,0.8,73.3,1012.8,NW,2.1,6.3,SE,14.89,1.4,6.6,11.4,7.25,3.0,7.5
"22/03/05",0.2,7.1,16.6,-0.6,75.1,1005.1,NW,2.6,11.8,NNW,15.23,2.7,6.8,11.5,7.56,3.3,7.6
"22/03/06",1.8,4.2,7.5,1.9,80.9,1009.2,NW,4.5,14.2,NNW,15.58,1.1,7.0,11.5,7.88,3.3,7.2
"22/03/07",0.2,3.8,9.1,0.1,80.5,1013.9,NW,2.5,9.6,NNW,9.42,0.5,2.0,11.5,3.41,2.0,6.6
"22/03/08",0.0,4.9,12.5,-2.0,74.3,1012.9,NW,2.3,8.5,N,20.25,0.1,10.6,11.6,11.19,3.7,6.9
"22/03/09",0.0,6.3,14.9,-0.5,71.5,1015.8,NW,2.1,7.4,NW,13.08,0.9,4.8,11.6,5.98,2.9,7.2
"22/03/10",0.0,7.6,16.9,-0.5,69.4,1017.5,WNW,1.5,5.4,SSW,19.29,1.4,9.7,11.7,10.47,3.6,7.8
"22/03/11",0.0,9.6,19.1,0.3,65.9,1015.3,WNW,1.7,7.3,SSW,19.52,2.6,9.8,11.7,10.62,4.2,8.6
"22/03/12",0.0,13.9,20.8,7.2,71.1,1014.2,NW,1.5,6.4,SW,16.19,8.4,7.1,11.7,8.54,3.9,10.3
"22/03/13",0.0,15.5,22.6,8.3,75.9,1012.5,WSW,1.5,9.7,WNW,14.90,10.9,6.0,11.8,7.87,3.6,11.5
"22/03/14",10.8,15.9,20.7,11.9,82.3,1008.5,NW,1.4,13.9,NW,13.21,12.8,4.6,11.8,6.88,3.0,13.0
"22/03/15",0.0,14.0,18.3,6.9,76.2,1007.5,NNW,2.6,12.1,NNW,21.33,9.4,10.8,11.8,12.45,5.1,13.2
"22/03/16",0.0,13.1,21.9,4.3,66.7,1010.4,NW,1.8,7.9,SSE,22.02,6.4,11.3,11.9,12.66,5.1,12.4
"22/03/17",0.0,11.3,16.7,6.8,70.6,1014.9,NNW,3.3,12.7,NNW,15.11,6.0,5.9,11.9,7.70,4.4,11.9
"22/03/18",33.6,10.1,11.9,7.9,90.1,1003.0,NW,2.3,8.1,NNW,0.79,8.6,0.0,11.9,-2.38,0.6,11.0
"22/03/19",2.8,9.1,11.2,6.1,83.9,999.4,NW,3.1,11.9,NNW,7.06,6.5,0.0,12.0,2.03,2.0,10.8
"22/03/20",0.4,7.3,11.3,4.3,82.2,1011.6,NNW,3.0,8.7,NNW,15.96,4.4,6.3,12.0,8.46,3.2,10.3
"22/03/21",0.0,8.5,14.5,4.1,72.9,1017.5,NNW,2.4,7.2,NW,13.71,3.7,4.6,12.1,6.67,3.3,10.3
"22/03/22",13.4,6.4,10.4,2.7,86.5,1014.8,NW,2.1,9.4,NNW,6.86,4.2,0.0,12.1,1.82,1.4,9.9
"22/03/23",1.4,7.2,12.4,1.5,80.4,1012.8,NW,1.5,7.7,NW,11.38,3.8,2.7,12.1,5.08,2.1,9.3
"22/03/24",0.2,9.6,16.7,3.8,79.2,1014.8,NW,2.2,8.6,NNW,17.55,5.7,7.3,12.2,9.70,3.6,10.3
"22/03/25",0.0,11.9,20.2,2.9,68.1,1020.5,WNW,1.6,5.8,NNW,19.13,5.2,8.4,12.2,10.70,4.3,10.9
"22/03/26",16.6,13.5,15.8,9.7,88.7,1006.9,NW,1.3,6.8,NNW,2.68,11.7,0.0,12.2,-0.76,0.9,11.7
"22/03/27",0.2,14.1,19.4,8.7,70.4,1005.9,NNW,2.7,8.6,NNW,22.38,8.2,10.6,12.3,13.28,5.7,13.1
"22/03/28",0.0,10.1,12.9,6.8,60.8,1018.3,NW,3.4,11.4,NNW,19.83,2.6,8.7,12.3,11.02,5.6,12.1
"22/03/29",0.0,11.1,17.4,5.9,74.0,1022.5,NW,1.7,5.1,NNW,9.97,6.5,1.4,12.4,4.13,2.6,11.5
"22/03/30",0.0,14.5,21.7,7.6,78.9,1018.9,NW,1.5,6.0,NNW,18.22,10.5,7.4,12.4,10.53,3.9,12.7
"22/03/31",2.2,12.4,15.1,8.7,86.7,1015.2,WNW,2.5,10.5,NW,4.98,10.3,0.0,12.4,0.82,1.6,13.0
"22/04/01",1.2,7.9,11.0,3.3,61.9,1020.3,NNW,3.1,15.6,NNW,23.58,0.6,11.2,12.4,13.82,5.6,11.5
"22/04/02",0.0,8.0,15.0,0.4,68.0,1021.6,WNW,1.9,5.7,NNW,19.09,1.9,7.9,12.5,10.65,3.9,10.8
"22/04/03",0.4,10.3,13.2,6.5,82.4,1022.1,WNW,2.0,6.0,NNW,7.77,7.4,0.0,12.5,2.66,2.0,11.4
"22/04/04",0.2,11.3,17.1,7.5,71.9,1020.5,NNW,3.7,13.2,NNW,25.91,6.1,12.5,12.5,15.92,6.3,12.0
"22/04/05",0.0,13.0,21.5,4.8,65.0,1017.1,NW,2.2,8.0,NNW,25.51,6.0,12.3,12.6,15.51,6.0,12.4
"22/04/06",0.0,14.6,22.2,6.7,63.4,1014.7,NW,2.4,9.7,NNW,24.50,7.0,11.5,12.6,14.80,6.4,13.5
"22/04/07",0.0,15.6,23.0,6.3,58.0,1010.9,NW,2.1,11.2,SW,24.37,6.2,11.4,12.7,14.58,6.6,13.8
"22/04/08",0.0,13.9,20.6,8.1,62.8,1014.1,NW,2.3,9.4,NNW,25.40,6.1,12.1,12.7,15.44,6.4,13.9
"22/04/09",0.0,15.4,24.9,5.2,57.8,1013.9,NW,1.8,8.6,SSW,25.54,6.1,12.1,12.7,15.46,6.5,13.9
"22/04/10",0.0,18.0,27.4,9.1,63.2,1014.5,WNW,1.7,5.8,SE,24.78,10.0,11.5,12.8,15.24,6.4,15.0
"22/04/11",0.0,18.2,25.2,11.5,61.8,1013.4,WNW,1.7,7.2,SE,18.64,9.9,7.1,12.8,10.70,5.4,15.6
"22/04/12",0.0,20.0,28.2,11.9,69.9,1009.0,NNW,1.6,6.7,N,21.30,13.9,8.9,12.8,13.12,5.5,16.4
"22/04/13",0.0,20.6,27.2,17.1,76.3,1007.9,NNW,2.3,11.6,NNW,16.59,16.1,5.6,12.9,9.94,4.9,17.6
"22/04/14",10.4,17.6,23.1,14.5,86.1,1009.3,NW,2.7,7.1,NW,7.35,15.2,0.0,12.9,3.08,2.4,17.0
"22/04/15",2.2,14.8,16.9,12.8,86.0,1005.8,NNW,3.4,10.1,NNW,8.12,12.4,0.0,12.9,3.38,2.5,15.9
"22/04/16",0.0,11.5,14.5,6.7,69.3,1008.1,NNW,3.9,20.9,NW,24.28,5.9,10.8,13.0,14.81,6.3,14.7
"22/04/17",0.0,13.5,21.7,4.9,67.0,1012.8,NW,2.1,9.4,NW,27.18,6.6,12.8,13.0,17.00,6.2,14.4
"22/04/18",0.0,16.3,22.6,10.9,73.5,1011.8,NNW,1.8,6.4,NNW,17.06,11.3,5.7,13.0,9.84,4.3,15.7
"22/04/19",0.0,15.4,22.8,9.0,50.5,1011.5,NNW,2.5,9.5,NNW,22.90,4.3,9.7,13.1,13.38,7.1,15.4
"22/04/20",0.0,16.6,24.6,6.9,47.3,1012.8,NNW,2.0,7.1,SW,23.55,4.1,10.1,13.1,13.79,7.1,15.2
"22/04/21",12.8,15.5,20.6,10.2,85.8,1012.2,WNW,1.2,5.7,SSE,6.33,13.0,0.0,13.1,2.12,1.6,15.2
"22/04/22",0.4,18.3,24.0,13.0,82.2,1007.6,NW,1.7,6.8,SW,19.19,14.9,7.0,13.2,11.91,4.4,16.6
"22/04/23",0.0,18.2,25.0,11.8,77.6,1008.4,NW,1.4,6.2,WSW,14.54,13.9,3.8,13.2,8.30,3.6,16.8
"22/04/24",8.2,16.6,18.6,14.3,92.5,1008.5,WNW,1.1,3.4,ESE,3.90,15.4,0.0,13.2,0.59,0.9,16.7
"22/04/25",0.2,21.1,29.5,15.8,76.5,1008.8,WNW,1.3,4.7,S,24.56,16.1,10.6,13.3,16.05,5.7,17.9
"22/04/26",28.4,20.3,23.7,16.5,89.3,1004.7,NW,1.4,8.9,SSW,4.55,18.5,0.0,13.3,1.45,1.4,18.2
"22/04/27",5.6,18.4,22.0,12.1,83.5,1006.7,NNW,2.8,11.4,N,12.95,15.5,2.6,13.3,7.33,3.7,18.7
"22/04/28",0.0,17.7,26.0,10.9,69.4,1011.1,NW,2.2,10.0,NW,25.96,11.3,11.5,13.4,16.54,6.7,17.5
"22/04/29",50.4,14.8,18.6,10.7,87.5,1003.8,WNW,2.0,13.5,NNW,1.39,12.8,0.0,13.4,-1.59,0.9,17.0
"22/04/30",0.0,15.3,21.7,10.0,63.2,1010.1,NW,2.0,8.8,NNW,28.62,7.8,13.2,13.4,18.19,6.9,16.3
"22/05/01",11.8,13.7,17.8,7.9,85.8,1006.3,NW,1.9,8.2,N,6.24,11.3,0.0,13.5,1.93,1.7,16.4
"22/05/02",0.2,12.3,20.0,5.9,75.8,1007.2,NW,1.6,8.2,N,20.78,7.5,7.8,13.5,12.53,4.3,15.1
"22/05/03",0.0,13.5,21.0,6.5,67.7,1013.2,NW,1.7,6.5,N,26.57,6.6,11.7,13.5,16.74,5.8,15.2
"22/05/04",0.0,16.6,26.3,6.9,64.1,1016.0,WNW,1.5,7.2,SSE,27.45,8.8,12.3,13.6,17.45,6.4,15.7
"22/05/05",0.0,18.7,29.1,8.3,58.9,1016.5,NW,1.6,5.1,NNW,27.86,9.1,12.5,13.6,17.71,7.2,16.4
"22/05/06",0.0,19.2,25.0,12.9,68.2,1014.8,NW,1.6,7.5,SSE,20.24,12.8,7.3,13.6,12.41,5.4,17.2
"22/05/07",0.0,21.0,27.8,12.4,67.4,1010.0,NW,1.9,10.1,NNW,22.61,14.2,8.9,13.6,14.32,6.4,17.7
"22/05/08",0.0,15.8,20.6,10.7,53.2,1012.6,NNW,3.2,10.0,NNW,26.92,5.6,11.8,13.7,16.67,8.4,17.4
"22/05/09",0.0,13.2,16.7,10.3,71.0,1012.6,NNW,2.6,7.3,NNW,3.52,8.1,0.0,13.7,-0.50,2.4,15.7
"22/05/10",0.0,17.2,24.7,8.2,68.9,1012.7,NW,1.4,6.2,NW,21.04,11.2,7.8,13.7,12.90,5.1,15.9
"22/05/11",0.4,19.7,26.2,15.9,69.3,1012.5,NW,1.0,4.5,SE,14.49,13.7,3.3,13.8,8.21,3.8,17.3
"22/05/12",11.6,19.2,21.2,17.5,86.7,1009.7,WNW,0.9,5.2,SSE,4.86,16.9,0.0,13.8,1.48,1.3,17.7
"22/05/13",15.2,20.1,22.0,17.2,93.8,1002.3,WNW,0.8,3.4,NNW,4.16,19.1,0.0,13.8,1.28,1.0,18.0
"22/05/14",9.6,18.9,21.6,13.0,81.4,1002.2,N,1.9,9.0,N,14.05,15.5,2.9,13.8,8.21,3.7,18.5
"22/05/15",0.0,15.6,20.6,11.2,72.8,1006.5,NW,1.9,5.6,NW,11.05,10.4,0.9,13.9,5.40,3.4,17.3
"22/05/16",0.0,17.2,22.7,11.9,69.4,1006.2,NNW,1.7,6.2,NNW,14.66,11.2,3.3,13.9,8.14,4.1,17.1
"22/05/17",0.0,16.8,23.0,12.2,74.4,1010.0,NNW,1.4,4.9,NNW,11.04,12.0,0.8,13.9,5.54,3.0,17.2
"22/05/18",0.0,19.0,28.3,10.3,59.1,1013.2,NW,1.5,5.4,NNW,27.62,9.4,12.1,13.9,17.65,7.1,17.1
"22/05/19",0.0,19.8,28.3,10.3,55.9,1013.1,NW,1.5,5.6,SE,22.90,9.9,8.8,14.0,14.04,6.5,17.4
"22/05/20",0.0,19.5,26.2,13.4,65.5,1010.1,WNW,1.1,4.0,SSW,12.22,12.5,1.6,14.0,6.38,3.6,17.5
"22/05/21",0.0,18.3,23.1,15.8,75.9,1005.1,NW,1.0,4.8,SSE,7.26,13.9,0.0,14.0,2.88,2.2,17.6
"22/05/22",4.8,21.8,29.6,14.8,65.0,1000.4,NW,1.9,8.3,N,26.19,14.1,11.0,14.0,17.08,7.4,18.1
"22/05/23",0.2,20.3,27.0,15.2,64.4,1006.3,NNW,2.1,8.3,NNW,28.48,12.3,12.6,14.0,18.64,7.8,18.7
"22/05/24",0.0,21.9,30.0,12.4,57.1,1009.1,NW,1.7,6.7,NNW,27.89,12.2,12.1,14.1,18.01,8.0,18.6
"22/05/25",0.4,22.6,30.0,16.5,72.8,1006.4,WNW,1.2,5.6,SSE,18.14,17.0,5.5,14.1,11.44,4.8,19.2
"22/05/26",6.0,22.2,28.9,17.0,78.8,1001.6,NW,1.3,5.9,SSE,15.54,18.1,3.8,14.1,9.67,4.0,19.4
"22/05/27",8.8,21.6,27.6,17.0,77.2,995.3,NNW,1.7,8.5,N,20.94,17.1,7.4,14.1,13.62,5.4,19.9
"22/05/28",0.0,21.8,29.4,14.1,66.1,999.4,NNW,1.6,7.3,NW,27.03,14.4,11.5,14.1,17.77,7.2,19.8
"22/05/29",0.0,23.8,32.9,14.6,60.6,1001.5,NW,1.2,4.8,SE,27.86,14.5,12.1,14.2,18.35,7.4,19.8
"22/05/30",3.6,22.3,29.9,14.9,63.7,998.3,NW,1.2,5.8,SW,17.63,14.5,5.1,14.2,10.68,5.1,19.6
"22/05/31",5.8,20.1,27.6,13.9,78.4,999.9,NW,1.4,10.1,NNW,20.18,15.9,6.9,14.2,12.92,4.8,19.8
"22/06/01",0.0,20.0,27.4,12.7,65.2,1003.3,NW,1.3,5.2,NNW,20.33,12.3,7.0,14.2,12.54,5.3,19.0
"22/06/02",0.0,22.3,30.8,12.6,60.7,1002.3,NW,1.4,5.8,SSW,27.31,13.1,11.7,14.2,17.81,7.4,19.0
"22/06/03",0.0,22.5,30.4,15.3,64.9,1003.6,NNW,1.8,9.1,NNW,25.77,15.0,10.6,14.2,16.87,7.3,19.5
"22/06/04",0.0,21.2,28.8,14.4,64.0,1006.2,NNW,2.0,7.2,N,27.15,13.5,11.5,14.2,17.74,7.6,19.6
"22/06/05",7.0,21.2,27.7,14.9,72.4,1002.9,WNW,1.4,6.0,NNW,13.11,15.7,2.0,14.3,7.50,3.9,19.6
"22/06/06",53.6,18.5,20.0,17.1,95.1,990.6,ESE,0.9,4.3,SE,3.37,17.7,0.0,14.3,0.52,0.7,18.8
"22/06/07",0.8,18.5,21.5,13.7,80.8,998.4,WNW,2.3,10.1,NNW,18.03,15.1,5.4,14.3,11.21,4.6,19.2
"22/06/08",0.0,19.0,25.5,12.2,75.5,1005.3,NNW,1.6,7.0,NNW,19.94,14.3,6.6,14.3,12.54,4.9,18.6
"22/06/09",0.0,22.2,29.4,14.5,67.6,1007.9,NNW,1.9,5.7,NNW,26.37,15.2,11.0,14.3,17.42,7.3,19.3
"22/06/10",0.0,23.9,29.3,18.6,69.4,1009.1,NW,1.3,5.1,SW,20.61,17.6,7.1,14.3,13.36,5.7,20.2
"22/06/11",3.2,21.3,24.9,18.1,83.6,1007.4,NW,1.0,3.7,N,5.50,18.4,0.0,14.3,2.16,1.7,20.1
"22/06/12",0.0,20.5,24.4,16.5,72.6,1005.0,NNW,2.7,10.6,NNW,27.04,15.1,11.4,14.3,17.94,7.4,20.1
"22/06/13",0.0,21.4,27.0,15.6,67.2,1005.7,NNW,1.4,7.1,SE,18.20,14.6,5.4,14.3,11.17,5.1,19.8
"22/06/14",20.0,19.0,21.5,16.3,86.0,1006.9,E,0.9,5.7,ESE,1.86,16.6,0.0,14.3,-0.81,0.9,19.4
"22/06/15",4.8,20.3,24.7,17.1,86.5,1005.6,NW,0.9,4.4,N,10.01,17.9,0.0,14.3,5.53,2.3,19.4
"22/06/16",0.0,22.6,27.4,18.5,84.9,1004.5,NW,1.1,6.5,NNW,10.51,19.9,0.2,14.3,6.18,2.7,20.5
"22/06/17",0.0,24.8,31.3,19.4,75.7,1004.4,NW,1.5,6.6,SW,20.43,19.8,6.9,14.4,13.63,5.5,21.5
"22/06/18",0.0,24.0,28.4,20.4,79.8,1003.3,NW,1.0,4.3,SE,9.12,20.2,0.0,14.4,5.14,2.7,21.7
"22/06/19",0.0,25.2,31.4,20.9,78.6,1003.5,NW,1.2,5.2,NNW,13.71,21.0,2.4,14.4,8.75,3.9,22.1
"22/06/20",0.0,26.4,31.4,21.9,75.5,1000.5,WNW,1.2,5.1,SW,18.51,21.5,5.7,14.4,12.41,5.1,23.0
"22/06/21",33.8,23.2,24.9,21.6,91.2,1001.4,NW,0.8,3.9,SW,3.04,21.7,0.0,14.4,0.84,0.9,22.5
"22/06/22",8.2,25.1,30.4,21.8,88.3,1002.1,WNW,0.8,18.1,ESE,13.11,23.0,2.0,14.4,8.67,3.0,23.2
"22/06/23",0.0,27.6,32.3,23.1,77.1,1003.7,NW,1.3,5.7,SSW,17.02,23.0,4.7,14.4,11.57,4.9,24.1
"22/06/24",0.0,28.2,32.6,24.3,75.3,999.3,NW,1.8,10.6,SW,21.17,23.2,7.5,14.4,14.72,6.4,24.5
"22/06/25",0.0,27.6,32.1,23.2,77.3,1003.2,WSW,1.3,7.1,SW,13.46,23.2,2.2,14.4,8.91,4.2,24.6
"22/06/26",0.0,26.4,32.0,21.9,76.5,1009.1,NW,1.1,8.3,SW,13.94,21.7,2.6,14.3,9.02,4.1,24.2
"22/06/27",0.0,28.1,34.5,22.8,76.6,1009.5,NNW,1.1,5.1,SSW,17.23,23.4,4.8,14.3,11.79,4.8,24.5
"22/06/28",0.0,28.9,34.5,23.1,71.2,1007.1,NW,1.3,7.1,WSW,25.58,22.8,10.5,14.3,17.94,7.2,24.9
"22/06/29",0.0,29.7,35.2,25.0,67.2,1006.2,NW,1.2,8.1,SSW,25.54,22.6,10.4,14.3,17.81,7.5,25.3
"22/06/30",0.0,29.9,36.3,23.5,68.9,1008.1,NNW,1.5,6.3,SW,23.66,23.2,9.2,14.3,16.55,7.3,25.6
"22/07/01",0.0,30.7,38.5,24.0,61.8,1009.9,NNW,1.3,5.2,NNW,25.64,21.9,10.5,14.3,17.74,8.1,26.0
"22/07/02",0.0,30.6,38.0,23.4,63.3,1008.8,WNW,1.2,6.7,WSW,26.75,22.3,11.3,14.3,18.64,8.1,26.0
"22/07/03",33.2,25.8,27.6,24.2,89.1,1006.6,NNW,0.8,3.4,SE,3.05,23.8,0.0,14.3,1.21,1.1,25.5
"22/07/04",4.6,25.3,27.6,24.1,92.7,1004.6,NW,0.7,2.9,SSW,4.59,24.1,0.0,14.3,2.42,1.2,25.0
"22/07/05",9.0,25.4,30.7,23.4,90.9,1000.8,NNW,0.7,5.2,SE,8.49,23.8,0.0,14.3,5.33,2.0,25.0
"22/07/06",0.2,27.2,32.4,23.4,80.1,1001.2,NNW,1.5,8.6,N,17.02,23.2,4.7,14.3,11.64,4.8,25.2
"22/07/07",0.0,28.0,34.2,23.5,70.3,1003.2,NNW,1.8,5.9,N,24.81,21.6,10.0,14.3,17.14,7.5,25.2
"22/07/08",2.2,26.0,32.9,21.9,83.6,1000.5,NW,1.3,7.5,NNW,12.97,22.9,2.0,14.2,8.51,3.5,25.0
"22/07/09",35.2,26.6,33.1,23.8,85.4,996.2,NW,1.0,7.0,SW,14.97,23.8,3.4,14.2,10.20,3.7,25.1
"22/07/10",0.2,26.7,31.2,23.7,86.4,999.3,NNW,0.7,3.2,ESE,11.34,24.1,0.9,14.2,7.52,2.8,25.3
"22/07/11",0.0,28.4,33.4,23.9,78.3,1001.4,NW,1.0,7.3,SSW,18.93,24.0,6.1,14.2,13.19,5.0,25.8
"22/07/12",20.8,25.5,29.5,22.9,89.1,1000.5,NNW,1.0,4.0,N,6.58,23.6,0.0,14.2,3.83,1.8,25.4
"22/07/13",0.0,25.4,30.5,21.5,83.7,999.4,NNW,1.5,6.6,NNW,14.61,22.3,3.2,14.2,9.64,4.0,25.0
"22/07/14",2.4,24.5,27.3,22.6,89.5,997.3,NNW,1.0,4.3,NNW,5.07,22.6,0.0,14.2,2.51,1.5,24.6
"22/07/15",2.6,25.7,32.2,23.0,88.8,994.9,NNW,1.2,5.4,WSW,9.46,23.6,0.0,14.1,6.02,2.5,24.8
"22/07/16",0.4,25.4,28.8,22.7,87.7,993.7,NW,1.0,4.7,SSW,7.48,23.2,0.0,14.1,4.43,2.1,24.6
"22/07/17",0.2,26.4,31.7,23.5,83.8,994.7,NW,1.0,9.5,NNW,15.52,23.3,3.8,14.1,10.49,3.9,24.8
"22/07/18",1.4,26.8,32.2,23.0,81.3,998.9,WNW,0.9,3.9,S,13.35,23.2,2.4,14.1,8.83,3.6,25.0
"22/07/19",85.8,25.7,26.9,24.6,94.1,997.0,WNW,0.7,5.9,SW,2.39,24.7,0.0,14.1,0.88,0.7,25.0
"22/07/20",0.0,27.6,34.4,22.1,77.9,1000.3,NNW,0.9,5.8,WSW,22.89,23.0,8.9,14.0,15.97,5.7,25.2
"22/07/21",0.4,26.3,31.2,22.7,81.9,999.2,NNW,1.1,4.3,NNW,10.90,22.8,0.7,14.0,6.92,3.1,25.2
"22/07/22",15.4,26.9,31.7,23.5,80.9,995.7,WNW,1.4,8.2,WSW,21.20,23.2,7.8,14.0,14.71,5.6,25.3
"22/07/23",0.0,25.3,30.1,21.2,76.8,999.6,NW,1.7,6.4,NNW,13.68,20.8,2.7,14.0,8.61,4.3,24.9
"22/07/24",0.0,27.0,33.6,19.8,70.0,1001.8,NW,1.5,5.5,SSW,26.17,20.6,11.2,13.9,17.91,7.3,24.6
"22/07/25",0.0,29.2,35.5,23.6,72.6,1003.8,WNW,1.0,4.7,SW,23.16,23.5,9.2,13.9,16.17,6.3,25.4
"22/07/26",0.0,30.2,35.7,24.1,73.3,1003.7,NW,0.9,4.1,NNW,19.86,24.6,6.9,13.9,13.91,5.6,26.1
"22/07/27",1.6,28.6,34.7,25.8,80.6,1005.2,NNW,1.1,5.4,NNE,14.75,24.8,3.5,13.9,10.15,4.2,26.4
"22/07/28",0.2,29.1,35.8,24.4,80.3,1007.4,WNW,0.8,4.3,NW,16.08,25.1,4.4,13.9,11.22,4.3,26.3
"22/07/29",0.0,29.5,34.0,24.0,74.7,1009.1,ESE,1.0,6.3,S,15.08,24.3,3.7,13.8,10.26,4.6,26.1
"22/07/30",0.0,29.4,34.0,24.1,75.2,1008.6,NW,1.1,5.8,SE,15.49,24.4,4.0,13.8,10.58,4.7,26.0
"22/07/31",0.0,30.3,36.8,24.3,69.5,1008.1,WNW,1.0,6.8,SW,21.89,23.6,8.4,13.8,15.20,6.3,26.3
"22/08/01",0.0,30.6,36.0,24.6,68.2,1007.7,NNW,1.2,5.9,SW,24.90,23.7,10.5,13.8,17.41,7.4,26.5
"22/08/02",0.0,30.9,37.8,24.5,68.0,1008.0,NW,1.3,5.7,SW,24.94,23.9,10.5,13.7,17.49,7.5,26.5
"22/08/03",5.0,29.4,37.2,24.8,76.9,1005.8,NNW,1.4,8.6,N,21.10,24.5,7.9,13.7,14.85,6.0,26.7
"22/08/04",3.0,27.6,34.9,24.9,86.2,1002.7,NNW,1.3,7.2,N,12.45,25.0,2.0,13.7,8.47,3.4,26.7
"22/08/05",8.8,26.9,33.4,24.2,88.1,1001.1,NNW,1.0,4.8,SW,10.77,24.7,0.9,13.7,7.15,2.8,26.3
"22/08/06",0.0,28.1,33.9,23.8,82.6,1002.5,NW,0.8,8.7,S,16.24,24.7,4.7,13.6,11.23,4.1,26.3
"22/08/07",0.0,29.3,35.2,24.7,77.5,1004.9,NW,0.9,7.9,SSE,19.55,24.6,7.0,13.6,13.67,5.2,26.6
"22/08/08",0.0,29.9,36.1,24.7,75.8,1005.8,NW,1.1,7.7,SW,21.36,24.8,8.3,13.6,15.04,5.9,26.7
"22/08/09",0.0,30.4,36.3,24.8,72.3,1005.5,NW,1.0,5.7,SW,17.24,24.5,5.4,13.5,11.88,5.2,26.7
"22/08/10",0.0,30.4,36.4,25.3,71.5,1004.9,NW,1.0,6.6,WSW,20.81,24.3,7.9,13.5,14.47,6.0,26.8
"22/08/11",0.6,30.5,37.4,25.1,68.3,1003.9,NW,1.1,5.7,SW,21.24,23.4,8.3,13.5,14.61,6.4,26.9
"22/08/12",3.2,28.9,35.1,25.4,81.6,1002.2,NW,1.0,4.1,SW,14.50,25.2,3.6,13.4,10.00,4.0,26.8
"22/08/13",1.6,28.2,33.8,25.4,82.5,1001.1,NW,1.1,6.8,N,14.18,24.8,3.4,13.4,9.67,3.9,26.8
"22/08/14",4.6,27.5,31.5,25.2,87.8,1002.4,NW,0.8,3.7,NNW,6.99,25.3,0.0,13.4,4.40,2.0,26.5
"22/08/15",1.6,29.3,35.7,24.6,80.8,1002.0,NW,1.1,6.7,WSW,15.79,25.3,4.6,13.4,10.98,4.4,26.8
"22/08/16",40.4,29.5,34.6,24.7,77.6,1000.7,WNW,1.2,9.4,N,15.76,25.0,4.6,13.3,10.84,4.7,26.8
"22/08/17",133.8,25.1,27.1,23.5,95.9,1003.3,NW,0.6,4.9,WSW,3.86,24.5,0.0,13.3,1.91,0.9,25.6
"22/08/18",48.0,25.5,32.2,22.3,87.6,1000.8,NW,1.2,8.6,NNE,15.84,23.1,4.7,13.3,10.59,3.8,25.5
"22/08/19",0.0,26.5,32.2,21.1,75.2,1000.2,NNW,1.5,5.2,SW,26.75,21.3,12.4,13.2,18.30,7.1,25.4
"22/08/20",8.6,26.9,32.3,23.4,84.0,997.9,NNW,0.8,4.5,N,8.00,23.9,0.0,13.2,4.85,2.4,25.6
"22/08/21",8.6,26.8,32.1,24.4,89.6,998.0,NW,1.0,4.3,S,10.13,24.9,0.8,13.2,6.65,2.5,26.1
"22/08/22",0.0,28.6,33.0,25.1,81.4,999.7,NNW,0.8,4.5,NNE,10.85,25.0,1.4,13.1,7.17,3.1,26.4
"22/08/23",5.4,29.3,35.1,25.0,79.1,1000.2,NW,1.0,5.1,SW,16.18,25.0,5.1,13.1,11.13,4.5,26.7
"22/08/24",0.2,26.8,31.2,24.6,83.7,1000.3,NNW,1.5,6.6,NNW,9.81,23.7,0.7,13.1,6.14,3.1,26.6
"22/08/25",2.2,27.6,32.5,23.7,83.1,999.2,NW,1.0,6.3,NNW,10.39,24.4,1.1,13.0,6.69,3.0,26.3
"22/08/26",0.0,27.8,33.4,24.6,78.9,999.4,NNW,1.1,4.4,NW,14.58,23.7,4.1,13.0,9.64,4.1,26.5
"22/08/27",0.0,27.2,33.0,23.8,77.3,1000.8,NNW,1.1,6.4,NNW,12.04,22.7,2.4,13.0,7.57,3.7,26.2
"22/08/28",0.0,24.7,29.1,18.5,72.1,1005.9,NNW,1.6,8.1,NNW,15.38,19.2,4.8,12.9,9.39,4.9,25.7
"22/08/29",0.0,25.5,32.3,18.6,74.1,1010.1,NW,1.1,5.4,SE,19.17,20.3,7.5,12.9,12.39,5.1,24.9
"22/08/30",6.4,26.1,31.1,22.4,85.8,1006.7,NW,0.7,3.6,NNW,6.88,23.5,0.0,12.9,3.93,2.0,25.3
"22/08/31",0.2,29.1,34.8,23.4,79.2,1002.9,NW,1.0,5.8,SW,20.26,24.8,8.4,12.8,14.04,5.3,26.8
"22/09/01",41.6,25.9,28.6,23.1,92.7,1004.5,NNW,0.8,4.9,NW,5.61,24.6,0.0,12.8,3.21,1.4,26.9
"22/09/02",19.6,26.1,32.8,22.2,84.0,1008.6,NW,1.3,7.1,NW,15.71,22.9,5.2,12.8,10.34,4.1,26.4
"22/09/03",10.0,26.4,33.2,23.2,83.5,1009.1,NNW,1.2,7.1,SW,14.85,23.1,4.6,12.7,9.72,3.9,26.8
"22/09/04",0.0,27.3,33.4,22.6,81.7,1008.4,NW,0.9,5.6,SSW,14.19,23.7,4.2,12.7,9.33,3.7,27.0
"22/09/05",0.0,27.3,31.8,22.3,79.5,1006.5,WNW,1.1,7.1,ESE,11.57,23.3,2.3,12.7,7.29,3.4,26.7
"22/09/06",11.4,27.2,33.7,22.7,80.5,1002.0,WNW,1.4,9.7,SW,11.76,23.2,2.5,12.6,7.45,3.6,26.4
"22/09/07",0.8,25.0,29.6,21.5,81.4,1006.8,NW,1.5,7.2,NW,17.71,21.5,6.9,12.6,11.47,4.7,26.4
"22/09/08",11.4,24.8,28.4,22.6,83.4,1008.0,NW,1.4,7.4,NNW,6.36,21.7,0.0,12.6,3.18,2.3,25.8
"22/09/09",16.8,25.1,28.4,22.6,89.6,1007.9,NW,0.9,4.2,NNW,7.52,23.2,0.0,12.5,4.32,2.0,25.5
"22/09/10",0.2,26.7,32.6,22.7,81.4,1008.7,NW,1.4,4.8,N,15.02,23.1,5.1,12.5,9.74,4.2,26.2
"22/09/11",0.0,27.9,35.3,22.2,75.1,1008.3,NW,0.9,4.1,SW,20.54,22.6,9.2,12.5,13.67,5.5,26.8
"22/09/12",0.0,27.6,35.2,21.2,74.3,1007.9,NW,0.9,4.7,SSW,19.13,22.2,8.2,12.4,12.54,5.2,26.9
"22/09/13",0.0,28.0,34.6,22.5,74.3,1008.6,NW,1.2,5.8,N,19.32,22.7,8.4,12.4,12.74,5.5,27.0
"22/09/14",0.0,27.9,34.4,24.1,78.7,1008.5,NNW,1.5,5.2,NNE,13.46,23.7,4.1,12.3,8.66,4.3,26.9
"22/09/15",0.0,27.7,33.7,22.8,75.2,1007.2,E,0.9,4.4,SW,16.90,22.6,6.7,12.3,10.94,4.7,26.8
"22/09/16",0.0,26.9,31.8,22.0,66.9,1006.1,ESE,1.0,5.1,ESE,17.88,19.9,7.5,12.3,11.09,5.3,26.3
"22/09/17",0.6,26.5,28.9,22.4,71.6,1004.7,E,1.3,6.4,SE,5.94,20.9,0.0,12.2,2.61,3.0,25.1
"22/09/18",0.0,28.3,31.2,24.4,79.3,999.4,E,1.3,6.0,ESE,10.26,24.3,1.9,12.2,6.40,3.4,25.6
"22/09/19",28.6,27.8,30.7,24.7,79.6,987.7,SE,1.5,7.3,ESE,1.75,23.9,0.0,12.2,0.16,1.8,25.5